Location: Poughquag
(41.6090°N, 73.6820°W)
Time: 21:51:05
(UTC-05:00)

N. Korean satellite - Pass Details

Date: 02 February 2021
Orbit: 451 x 503 km, 97.2° (Epoch: 24 February)

Event Time Altitude Azimuth Distance (km) Brightness Sun altitude
Rises 05:34:28 0° 8° (N) 2,479 10.2 -17.2°
Reaches altitude 10° 05:36:32 10° 4° (N) 1,596 9.1 -16.9°
Maximum altitude 05:39:54 60° 285° (WNW) 523 6.3 -16.2°
Drops below altitude 10° 05:43:14 10° 204° (SSW) 1,578 9.0 -15.6°
Sets 05:45:15 0° 201° (SSW) 2,446 10.0 -15.2°
